Вернуться в каталог

ONEWEB-0336

АктивенСвязьPO
NORAD 49202·PAYLOAD·🇬🇧 United Kingdom

Запущен Sep 14, 2021 с Baikonur Cosmodrome

Loading…

Ближайшие Пролёты (ближайшие 24 часа)

TLE

СвежийSource: CelesTrak SupGP

Эпоха: Sep 14, 2026, 15:15 UTC

1 49202C 21083S   26257.63593009 -.00000408  00000+0 -11192-2 0  2574
2 49202  87.8916 302.4299 0001998 106.6884 352.4467 13.13469207    15

Отслеживайте ONEWEB-0336 в реальном времени с AllMySat

Download on the App Store